Barking Sands, HI

10:58 PM HST on May 28, 2017 (GMT -1000)
Barking Sands PMRF

Weather History for PHBK - September, 2012

Change the Weather History Date:

Friday, September 14, 2012

  Actual Average Record
Temperature  
Mean Temperature 78 °F -  
Max Temperature 84 °F 88 °F 90 °F (1966)
Min Temperature 73 °F 68 °F 64 °F (1964)
Cooling Degree Days 14    
Growing Degree Days 28 (Base 50)    
Moisture  
Dew Point 61 °F    
Average Humidity 55    
Maximum Humidity 64    
Minimum Humidity 49    
Precipitation  
Precipitation 0.00 in - - ()
Sea Level Pressure  
Sea Level Pressure 30.04 in    
Wind  
Wind Speed 4 mph (NNE)    
Max Wind Speed 10 mph    
Max Gust Speed -    
Visibility 10 miles    
Events      
Averages and records for this station are not official NWS values.
T = Trace of Precipitation, MM = Missing Value Source: NWS Daily Summary

Daily Weather History Graph

Daily Weather History Graph

Search for Another Location

Airport or City:

Trip Planner

Search our weather history database for the weather conditions in past years. The results will help you decide how hot, cold, wet, or windy it might be!

Date:

Astronomy

Sep. 14, 2012 Rise Set
Actual Time 6:25 AM HST 6:42 PM HST
Civil Twilight 6:03 AM HST 7:04 PM HST
Nautical Twilight 5:37 AM HST 7:31 PM HST
Astronomical Twilight 5:11 AM HST 7:57 PM HST
Moon 5:07 AM HST (9/14) 5:45 PM HST (9/14)
Length of Visible Light 13h 01m
Length of Day
12h 16m
Waning Crescent, 2% of the Moon is Illuminated
Sep 14
Waning Crescent
Sep 15
New
Sep 22
First Quarter
Sep 29
Full
Oct 7
Last Quarter

Hourly Weather History & Observations

Time (HST) Temp. Heat Index Dew Point Humidity Pressure Visibility Wind Dir Wind Speed Gust Speed Precip Events Conditions
12:56 AM 75.9 °F - 57.9 °F 54% 30.05 in 10.0 mi Calm Calm - N/A   Partly Cloudy
1:56 AM 75.9 °F - 59.0 °F 56% 30.06 in 10.0 mi Calm Calm - N/A   Overcast
2:56 AM 77.0 °F - 59.0 °F 54% 30.04 in 10.0 mi East 3.5 mph - N/A   Overcast
3:56 AM 75.0 °F - 60.1 °F 60% 30.04 in 10.0 mi Calm Calm - N/A   Overcast
4:56 AM 75.9 °F - 60.1 °F 58% 30.04 in 10.0 mi SE 6.9 mph - N/A   Overcast
5:56 AM 77.0 °F - 59.0 °F 54% 30.05 in 10.0 mi East 6.9 mph - N/A   Overcast
6:56 AM 77.0 °F - 60.1 °F 56% 30.05 in 10.0 mi ENE 5.8 mph - N/A   Overcast
7:56 AM 81.0 °F 81.6 °F 60.1 °F 49% 30.06 in 10.0 mi West 4.6 mph - N/A   Overcast
8:56 AM 82.0 °F 83.0 °F 62.1 °F 51% 30.07 in 10.0 mi NNW 6.9 mph - N/A   Overcast
9:56 AM 81.0 °F 81.9 °F 62.1 °F 52% 30.08 in 10.0 mi NNW 6.9 mph - N/A   Overcast
10:56 AM 82.9 °F 84.6 °F 64.9 °F 54% 30.06 in 10.0 mi WNW 10.4 mph - N/A   Overcast
11:56 AM 82.0 °F 83.1 °F 63.0 °F 52% 30.05 in 10.0 mi NNW 10.4 mph - N/A   Overcast
12:56 PM 84.0 °F 84.9 °F 63.0 °F 49% 30.03 in 10.0 mi NNW 10.4 mph - N/A   Overcast
1:56 PM 82.9 °F 84.6 °F 64.9 °F 54% 30.01 in 10.0 mi NW 6.9 mph - N/A   Overcast
2:56 PM 82.0 °F 83.4 °F 64.0 °F 54% 29.99 in 10.0 mi West 6.9 mph - N/A   Overcast
3:56 PM 82.0 °F 83.4 °F 64.0 °F 54% 29.98 in 10.0 mi West 6.9 mph - N/A   Overcast
4:56 PM 82.0 °F 83.1 °F 63.0 °F 52% 29.98 in 10.0 mi NE 5.8 mph - N/A   Overcast
5:56 PM 82.0 °F 83.8 °F 64.9 °F 56% 29.99 in 10.0 mi North 9.2 mph - N/A   Mostly Cloudy
6:56 PM 80.1 °F 81.9 °F 64.9 °F 60% 30.01 in 10.0 mi North 5.8 mph - N/A   Scattered Clouds
7:56 PM 75.9 °F - 63.0 °F 64% 30.04 in 10.0 mi SE 4.6 mph - N/A   Clear
8:56 PM 75.9 °F - 59.0 °F 56% 30.05 in 10.0 mi Calm Calm - N/A   Clear
9:56 PM 73.9 °F - 59.0 °F 59% 30.06 in 10.0 mi ESE 3.5 mph - N/A   Clear
10:56 PM 73.9 °F - 57.0 °F 55% 30.06 in 10.0 mi SE 3.5 mph - N/A   Clear
11:56 PM 73.9 °F - 57.9 °F 57% 30.06 in 10.0 mi East 4.6 mph - N/A   Clear